Lexington Weather

Lexington, Massachusetts, USA

36°F
1/28/2020 6:06am 
  • Lexington Conditions: Overcast
  • Temperature: 36.1°F / 2.3°C 
  • Dew Point: 29.7°FDecreased 0.3°Fsince last hour.
  • Relative Humidity: 77%Decreased 1.0% since last hour.
  • Wind: Wind from NNW NNW 3 mph, 10-min avg: 1 mph, gust: 4 mph
  • Barometer: 29.65 inRising 0.02  inHg/hr Rising Slowly
  • Visibility: 10 miles
  • Rain Today: 0.00 in
  •   

Regional Weather Roundup
for Boston / Norton, MA

        
000
ASUS41 KBOX 280801
RWRBOX

REGIONAL WEATHER ROUNDUP
NATIONAL WEATHER SERVICE BOSTON/NORTON MA
300 AM EST TUE JAN 28 2020

NOTE:  "FAIR" INDICATES FEW OR NO CLOUDS BELOW 12,000 FEET WITH NO 
SIGNIFICANT WEATHER AND/OR OBSTRUCTIONS TO VISIBILITY.

MAZALL-280900-
EASTERN MASSACHUSETTS
  
CITY           SKY/WX    TMP DP  RH WIND       PRES   REMARKS
BOSTON         MOCLDY    41  26  55 W9        29.65R                  
BEVERLY        CLOUDY    38  27  64 NW6       29.63S                  
LAWRENCE       CLOUDY    36  27  69 W3        29.66R                  
BEDFORD        CLOUDY    37  25  61 W7        29.64R WCI  32          
BLUE HILL        N/A     34  27  75 W9        29.62S WCI  27          
NORWOOD        CLOUDY    40  26  57 W3        29.65S                  
MARSHFIELD     NOT AVBL                                               
PLYMOUTH       CLOUDY    36  28  73 W6        29.64S WCI  31          
TAUNTON        CLOUDY    37  26  64 W6        29.65S                  
NEW BEDFORD    CLOUDY    37  26  64 W8        29.65S WCI  31          
$$

MAZALL-280900-
CAPE COD AND THE ISLANDS
  
CITY           SKY/WX    TMP DP  RH WIND       PRES   REMARKS
FALMOUTH       CLOUDY    36  28  75 NW7       29.64  WCI  30          
HYANNIS        NOT AVBL                                               
CHATHAM        CLOUDY    38  29  70 NW6       29.63S                  
PROVINCETOWN   CLOUDY    40  31  70 NW14G23   29.64R                  
NANTUCKET      CLOUDY    39  30  70 NW13      29.64R WCI  31          
MARTHAS VNYRD  CLOUDY    38  29  70 W7        29.65R                  
$$
 
MAZALL-280900-
CENTRAL AND WESTERN MASSACHUSETTS
  
CITY           SKY/WX    TMP DP  RH WIND       PRES   REMARKS
WORCESTER      CLOUDY    32  23  69 W15       29.62S WCI  22          
FITCHBURG      CLOUDY    35  25  66 NW6       29.66R WCI  30          
ORANGE         CLOUDY    35  25  66 NW5       29.67S WCI  31          
SPRINGFIELD    CLOUDY    36  26  67 CALM      29.67S                  
WESTFIELD      CLOUDY    36  26  67 NW9       29.68R WCI  29          
NORTH ADAMS    CLOUDY    33  25  72 W7        29.69R WCI  27          
PITTSFIELD     CLOUDY    32  25  75 W10G21    29.66S WCI  24          
$$
 
RIZALL-280900-
RHODE ISLAND
  
CITY           SKY/WX    TMP DP  RH WIND       PRES   REMARKS
PROVIDENCE     CLOUDY    38  27  64 W6        29.67S                  
NEWPORT        CLOUDY    38  27  64 NW8       29.66S                  
BLOCK ISLAND   CLOUDY    37  27  67 NW12G21   29.68S WCI  29          
SMITHFIELD     CLOUDY    36  26  67 W8        29.65S WCI  30          
WESTERLY       CLOUDY    40  25  55 VRB6      29.69S                  
$$
 
CTZALL-280900-
CONNECTICUT
  
CITY           SKY/WX    TMP DP  RH WIND       PRES   REMARKS
BRADLEY INTL   CLOUDY    36  25  64 NW9       29.68S WCI  29          
HARTFORD       CLOUDY    38  26  62 W6        29.70S                  
BRIDGEPORT     CLOUDY    39  26  59 NW8       29.73R                  
DANBURY        CLOUDY    36  23  59 NW5       29.73R                  
GROTON         NOT AVBL                                               
NEW HAVEN      CLOUDY    40  29  64 NW6       29.72S                  
CHESTER        NOT AVBL                                               
MERIDEN        CLOUDY    37  24  59 W8        29.71S WCI  31          
WILLIMANTIC    CLOUDY    35  26  69 VRB3      29.69S                  
OXFORD         CLOUDY    35  25  66 NW3       29.71R                  
$$

MEZ002-015-021-024-NHZ003-005-008-011-012-014-VTZ005-008-280900-
NORTHERN NEW ENGLAND
  
CITY           SKY/WX    TMP DP  RH WIND       PRES   REMARKS
PORTLAND ME    CLOUDY    35  27  72 W6        29.62R WCI  30          
BANGOR ME      CLOUDY    31  25  78 N8        29.59S WCI  23          
CONCORD NH     CLOUDY    34  25  69 W7        29.64R WCI  28          
MANCHESTER NH  CLOUDY    37  27  67 CALM      29.63S                  
NASHUA NH      CLOUDY    37  29  72 W9        29.66R WCI  30          
PORTSMOUTH NH  CLOUDY    37  26  64 W7        29.61S WCI  31          
JAFFREY NH     CLOUDY    34  25  69 W5        29.63S WCI  30          
KEENE NH       CLOUDY    34  26  72 CALM      29.67R                  
BURLINGTON VT  CLOUDY    32  29  88 N5        29.71R WCI  27          
MT. WASHINGTON NOT AVBL                                               
$$

NYZ052-076-280900-
EASTERN NEW YORK
  
CITY           SKY/WX    TMP DP  RH WIND       PRES   REMARKS
ALBANY         CLOUDY    36  26  67 NW9       29.74R WCI  29          
NEW YORK CITY  CLOUDY    38  25  59 NW13      29.75S WCI  30          
$$
 
ANZALL-280900-
MARINE OBSERVATIONS
  
STATION/POSITION TIME  TEMP    WIND        PRES    VSBY  WAVE
                       AIR SEA DIR/SP/G                  HT/PER
                 (UTC) (F)     (DEG/KT/KT) (MB)    (MI)  (FT/S)
BOSTON BUOY      0650   40 42  290/ 16/ 17 1002.5          2/10
BUZZARDS BAY     0700   39     300/ 17/ 18 1004.7R
NANTUCKET SOUND  NOT AVBL
MASS BAY-STELLWA 0704   39 41  330/ 14/ 17 1001.1R  1 7/8  2/ 3
ISLE OF SHOALS   0700   38     280/ 12/ 14 1002.5R
S OF BLOCK IS    0730      44                N/A           5/ 6
$$

......................KEY.........................
  SKY/WX - SKY CONDITION/PRESENT WEATHER
  TMP    - TEMPERATURE IN FAHRENHEIT
  DWPT   - DEWPOINT IN FAHRENHEIT
  RH     - RELATIVE HUMIDITY IN PERCENT
  WIND   - DIRECTION AND SPEED IN MPH
  PRES   - MEAN SEA LEVEL PRESSURE IN INCHES OF HG
  WCI    - WIND CHILL INDEX
  VSB    - VISIBILITY IN MILES
  HX     - HEAT INDEX
  TC     - TEMPERATURE IN CELSIUS
  VRB    - VARIABLE WIND DIRECTION
  N/A    - NOT AVAILABLE
  
      

Other recent Regional Weather Roundups

Tue Jan 28, 5:10am

Tue Jan 28, 5:00am

Tue Jan 28, 4:10am

Tue Jan 28, 4:00am

Tue Jan 28, 3:10am

Tue Jan 28, 2:10am

Tue Jan 28, 2:00am

Tue Jan 28, 1:10am

Tue Jan 28, 1:00am

Tue Jan 28, 12:10am

Tue Jan 28, 12:01am

Mon Jan 27, 11:10pm

Mon Jan 27, 11:00pm

Mon Jan 27, 10:10pm

Mon Jan 27, 10:00pm

Mon Jan 27, 9:10pm

Mon Jan 27, 9:00pm

Mon Jan 27, 8:10pm

Mon Jan 27, 8:01pm

Mon Jan 27, 7:10pm

Mon Jan 27, 7:00pm

Mon Jan 27, 6:10pm

Mon Jan 27, 6:00pm

Mon Jan 27, 5:10pm

Mon Jan 27, 5:00pm

Mon Jan 27, 4:10pm

Mon Jan 27, 4:00pm

Mon Jan 27, 3:10pm

Mon Jan 27, 3:00pm

Mon Jan 27, 2:10pm

Mon Jan 27, 2:00pm

Mon Jan 27, 1:10pm

Mon Jan 27, 1:00pm

Mon Jan 27, 12:10pm

Mon Jan 27, 12:00pm

Mon Jan 27, 11:10am

Mon Jan 27, 11:01am

Mon Jan 27, 10:10am

Mon Jan 27, 10:00am

Mon Jan 27, 9:10am

Mon Jan 27, 9:00am

Mon Jan 27, 8:10am

Mon Jan 27, 8:00am

Mon Jan 27, 7:10am

Mon Jan 27, 7:00am

Mon Jan 27, 6:10am

Mon Jan 27, 6:00am

Mon Jan 27, 5:10am

Mon Jan 27, 5:00am

Mon Jan 27, 4:10am

Mon Jan 27, 4:01am

Mon Jan 27, 3:10am

Mon Jan 27, 3:00am

Mon Jan 27, 2:10am

Mon Jan 27, 2:00am

Mon Jan 27, 1:10am

Mon Jan 27, 1:00am

Mon Jan 27, 12:10am

Mon Jan 27, 12:00am

Sun Jan 26, 11:10pm

Sun Jan 26, 11:00pm

Sun Jan 26, 10:10pm

Sun Jan 26, 10:00pm

Sun Jan 26, 9:10pm

Sun Jan 26, 9:01pm

Sun Jan 26, 8:10pm

Sun Jan 26, 8:00pm

Sun Jan 26, 7:10pm

Sun Jan 26, 7:00pm

Sun Jan 26, 6:10pm

Sun Jan 26, 6:01pm

Sun Jan 26, 5:10pm

Sun Jan 26, 5:01pm

Sun Jan 26, 4:10pm

Sun Jan 26, 4:00pm

Sun Jan 26, 3:10pm

Sun Jan 26, 3:01pm

Sun Jan 26, 2:10pm

Sun Jan 26, 2:01pm

Sun Jan 26, 1:10pm

Sun Jan 26, 1:00pm

Sun Jan 26, 12:10pm

Sun Jan 26, 12:00pm

Sun Jan 26, 11:10am

Sun Jan 26, 11:01am

Sun Jan 26, 10:10am

Sun Jan 26, 10:01am

Sun Jan 26, 9:10am

Sun Jan 26, 9:00am

Sun Jan 26, 8:10am

Sun Jan 26, 8:00am

Sun Jan 26, 7:10am

Sun Jan 26, 7:00am

Sun Jan 26, 6:10am

Sun Jan 26, 6:00am

Sun Jan 26, 5:10am

Sun Jan 26, 5:00am

Sun Jan 26, 4:10am

Sun Jan 26, 4:01am

Sun Jan 26, 3:10am

Sun Jan 26, 3:01am

Sun Jan 26, 2:10am

Sun Jan 26, 2:00am

Sun Jan 26, 1:10am

Sun Jan 26, 1:00am

Sun Jan 26, 12:10am

Sun Jan 26, 12:00am

Sat Jan 25, 11:10pm

Sat Jan 25, 11:00pm

Sat Jan 25, 10:10pm

Sat Jan 25, 10:01pm

Sat Jan 25, 9:10pm

Sat Jan 25, 9:01pm

Sat Jan 25, 8:10pm

Sat Jan 25, 8:01pm

Sat Jan 25, 7:10pm

Sat Jan 25, 7:01pm

Sat Jan 25, 6:10pm

Sat Jan 25, 6:01pm

Sat Jan 25, 5:10pm

Sat Jan 25, 5:01pm

Sat Jan 25, 4:10pm

Sat Jan 25, 4:00pm

Sat Jan 25, 3:10pm

Sat Jan 25, 3:01pm

Sat Jan 25, 2:10pm

Sat Jan 25, 2:00pm

Sat Jan 25, 1:10pm

Sat Jan 25, 1:00pm

Sat Jan 25, 12:10pm

Sat Jan 25, 12:00pm

Sat Jan 25, 11:10am

Sat Jan 25, 11:00am

Sat Jan 25, 10:10am

Sat Jan 25, 10:00am

Sat Jan 25, 9:10am

Sat Jan 25, 9:00am

Sat Jan 25, 8:10am

Sat Jan 25, 8:01am

Sat Jan 25, 7:10am

Sat Jan 25, 7:00am

Sat Jan 25, 6:10am

Sat Jan 25, 6:00am

Meta data:

ID: 7a087036-7969-4355-80bb-0df98342b798
Link: https://api.weather.gov/products/7a087036-7969-4355-80bb-0df98342b798